Location: Burgwalden
(48.2830°N, 10.7576°E)
Time: 02:30:00
(UTC+00:00)

Cosmos 2150 Rocket - Pass Details

Date: 26 September 2023
Orbit: 748 x 806 km, 74.0° (Epoch: 04 December)

Event Time Altitude Azimuth Distance (km) Brightness Sun altitude
Rises 04:20:22 0° 196° (SSW) 3,286 7.0 -8.8°
Reaches altitude 10° 04:22:46 10° 195° (SSW) 2,353 6.3 -8.4°
Maximum altitude 04:28:07 76° 110° (ESE) 811 4.3 -7.6°
Drops below altitude 10° 04:33:24 10° 26° (NNE) 2,331 7.0 -6.7°
Sets 04:35:46 0° 25° (NNE) 3,253 7.7 -6.3°
